Regional Weather Roundup
Issued by NWS San Angelo, TX

Home | Current Version | Previous Version | Text Only | Print | Product List | Glossary On
Versions: 1 2 3 4 5 6 7 8 9 10 11 12 13 14 15 16 17 18 19 20 21 22 23 24 25 26 27 28 29 30 31 32 33 34 35 36 37 38 39 40 41 42 43 44 45 46 47 48 49 50
000
ASUS44 KSJT 300111
RWRSJT
WEST CENTRAL TEXAS REGIONAL WEATHER ROUNDUP
NATIONAL WEATHER SERVICE SAN ANGELO TX
800 PM CDT SUN MAY 29 2016

NOTE: "FAIR" INDICATES FEW OR NO CLOUDS BELOW 12,000 FEET WITH NO
SIGNIFICANT WEATHER AND/OR OBSTRUCTIONS TO VISIBILITY.

TXZ049-054-064>066-071>073-076>078-098-099-113-114-127-128-139-140-
154-155-168>170-300200
...LOCATIONS ACROSS WEST CENTRAL TEXAS...

CITY           SKY/WX    TMP DP  RH WIND       PRES   REMARKS
SAN ANGELO     CLEAR     84  66  54 S8        29.96S
ABILENE        CLOUDY    83  66  56 SE9       29.96F
DYESS AFB      PTCLDY    84  67  56 E10       29.94F
JUNCTION       CLEAR     83  65  54 S10       30.00R
SWEETWATER     CLOUDY    82  66  60 SE3       30.01S
BROWNWOOD      PTCLDY    82  66  57 E7        29.97S
COLEMAN        CLOUDY    83  65  54 SE6       29.97S
SONORA         CLEAR     82  66  57 S12G18    30.04R
OZONA          FAIR      81  64  57 S15       30.02S
BRADY          NOT AVBL
$$

TEXAS PANHANDLE/OKLAHOMA PANHANDLE

CITY           SKY/WX    TMP DP  RH WIND       PRES   REMARKS
AMARILLO       CLOUDY    57  52  83 E28G35    30.14S
BORGER         CLOUDY    60  53  77 SE18G30   30.07F
CANADIAN       LGT RAIN  64  54  71 S25G32    30.06F
DALHART        CLOUDY    63  51  65 E18       30.17R
DUMAS          CLOUDY    57  54  89 E15       30.12R
GUYMON         NOT AVBL
HEREFORD       RAIN      57  56  97 SE28G38   30.16S
PAMPA          CLOUDY    60  53  76 NE18G36   30.11F
PERRYTON       CLOUDY    61  54  78 S16G23    30.07F
$$

SOUTHERN PANHANDLE/SOUTH PLAINS/ROLLING PLAINS

CITY           SKY/WX    TMP DP  RH WIND       PRES   REMARKS
LUBBOCK        CLOUDY    60  54  80 NE39G55   30.07F BLWGDUST
SNYDER           N/A     82  65  56 S10       30.00R
CHILDRESS      LGT RAIN  62  59  90 N23G33    30.14R
SEMINOLE       CLOUDY    79  62  56 SW10G16   30.05R
$$

PERMIAN BASIN

CITY           SKY/WX    TMP DP  RH WIND       PRES   REMARKS
MIDLAND        CLOUDY    81  64  56 S15       30.00R
ODESSA         PTCLDY    80  63  55 SW15      30.02R
WINK           NOT AVBL
$$

FAR WEST/SOUTHWEST MOUNTAINS/TRANS PECOS

CITY           SKY/WX    TMP DP  RH WIND       PRES   REMARKS
ALPINE         PTCLDY    80  55  41 SE7       30.15S
DRYDEN           N/A     82  68  62 E14       29.98R
EL PASO        MOSUNNY   88  32  13 S15       29.97R
FORT STOCKTON  NOT AVBL
GUADALUPE PASS NOT AVBL
MARFA          CLOUDY    79  52  38 E6        30.12S
PECOS          PTCLDY    85  62  46 E15G22    29.96S
$$

DALLAS/FORT WORTH METROPLEX

CITY           SKY/WX    TMP DP  RH WIND       PRES   REMARKS
DFW AIRPORT    CLOUDY    74  68  81 NE9       29.98R
FTW MEACHAM    PTCLDY    84  68  58 S7        29.97R
DAL-EXECUTIVE  CLEAR     83  68  60 VRB3      29.98R
GRAND PRAIRIE  PTCLDY    84  66  54 S5        30.00R
ADDISON        NOT AVBL
MESQUITE       CLOUDY    79  70  73 E10G17    29.99R
LANCASTER      CLOUDY    84  67  55 S7        29.99R
$$

NORTH CENTRAL TEXAS

CITY           SKY/WX    TMP DP  RH WIND       PRES   REMARKS
SHRMAN/DENISON CLOUDY    76  66  69 CALM      30.03R
GAINESVILLE    CLOUDY    78  69  73 E3        30.05R
BRIDGEPORT     PTCLDY    78  72  81 E5        30.00S
DENTON         PTCLDY    77  69  76 SE9       30.00R
WAXAHACHIE     PTCLDY    82  71  70 S5        30.00R
GRANBURY       CLEAR     84  70  62 SE8       29.98S
$$

WESTERN NORTH TEXAS

CITY           SKY/WX    TMP DP  RH WIND       PRES   REMARKS
WICHITA FALLS  CLOUDY    78  67  68 NE7       30.03R
VERNON         CLOUDY    67  58  74 N16G26    30.09R THUNDER
BRECKENRIDGE   CLOUDY    83  67  57 SE8       29.96F
COMANCHE       PTCLDY    81  67  64 SE10G17   29.99R
$$

CENTRAL AND SOUTH CENTRAL TEXAS

CITY           SKY/WX    TMP DP  RH WIND       PRES   REMARKS
AUSTIN/BERGSTM PTCLDY    82  69  64 S9        29.99R
WACO           CLEAR     84  68  58 S13       29.98R
HILLSBORO      CLEAR     82  69  66 SE7       29.99R
TEMPLE         CLEAR     83  70  64 SE10      29.99R
KILLEEN-GRAY   CLEAR     82  70  66 S7        29.98R
FORT HOOD      CLEAR     83  69  63 S10       29.96S
GEORGETOWN     NOT AVBL
LAGO VISTA     FAIR      82  68  62 SE7       30.01S
SAN MARCOS     MOCLDY    82  72  69 SE12      30.00R
NEW BRAUNFELS  CLOUDY    83  70  64 SE8       29.98R
RANDOLPH AFB   PTCLDY    81  69  67 SE9       30.00R
SAN ANTONIO    CLOUDY    82  68  62 SE16      30.00R
STINSON        MOCLDY    84  67  56 SE9       29.96S
PLEASANTON     NOT AVBL
LA GRANGE        N/A     84  74  71 S7        29.98R
GIDDINGS       CLEAR     82  70  66 SE5       30.03S
$$

EAST TEXAS

CITY           SKY/WX    TMP DP  RH WIND       PRES   REMARKS
PARIS          CLOUDY    72  61  68 CALM      30.02F
CLARKSVILLE    NOT AVBL
TYLER          CLEAR     82  69  64 SE7       30.01R
LONGVIEW       PTCLDY    78  71  79 SE3       30.01R
PALESTINE      CLEAR     84  72  67 SE3       30.01S
NACOGDOCHES    CLEAR     79  70  73 CALM      30.01R
$$

TEXAS HILL COUNTRY AND EDWARDS PLATEAU

CITY           SKY/WX    TMP DP  RH WIND       PRES   REMARKS
LLANO          CLEAR     84  70  61 S8        30.02R
HORSESHOE BAY  FAIR      83  69  62 SE9       30.00R
KERRVILLE      PTCLDY    79  70  73 SE8       30.02S
FREDERICKSBRG  PTCLDY    79  66  63 SE6       30.02R
ROCKSPRINGS    PTCLDY    79  70  73 SE10      30.05R
HONDO          CLOUDY    82  72  71 SE12      29.99F
UVALDE         CLOUDY    81  73  76 E6        29.97S
DEL RIO        CLOUDY    84  71  65 SE9       29.93R
$$

SOUTHEAST TEXAS

CITY           SKY/WX    TMP DP  RH WIND       PRES   REMARKS
COLLEGE STN    CLEAR     84  72  67 SE6       29.99S
CALDWELL       PTCLDY    82  72  69 SE3       30.02S
CROCKETT       CLOUDY    81  72  74 S3        30.03F
BRENHAM        PTCLDY    83  73  69 SE6       30.01R
HUNTSVILLE     CLEAR     86  68  54 CALM      30.00S
CONROE         PTCLDY    83  71  67 S10       30.02R
HOUSTON BUSH   PTCLDY    80  69  69 SE10      30.01R
HOUSTON HOBBY  PTCLDY    82  70  66 S7        30.01R
PERLAND        PTCLDY    83  72  69 S6        30.03R
WHARTON        PTCLDY    80  73  79 SE5       30.02S
$$

THE UPPER TEXAS COAST

CITY           SKY/WX    TMP DP  RH WIND       PRES   REMARKS
ORANGE         PTCLDY    81  71  72 S7        30.03R
PORT ARTHUR    PTCLDY    79  72  79 S5        30.01R
GALVESTON      PTCLDY    79  73  82 SE9       30.04R
ANGLETON       CLOUDY    80  73  79 SE7       30.02S
BAY CITY       CLOUDY    80  73  80 SE5       30.02F
$$

TEXAS COASTAL BEND, RIO GRANDE PLAINS DEEP SOUTH TEXAS

CITY           SKY/WX    TMP DP  RH WIND       PRES   REMARKS
VICTORIA       CLOUDY    80  73  79 SE9       30.01S
BEEVILLE       FAIR      81  75  81 SE12      29.98F
ROCKPORT       CLOUDY    82  73  74 S13G18    29.99F
PORT ARANSAS   CLOUDY    81  75  83 SE12      30.00F
PORT LAVACA    CLOUDY    79  74  84 SE8       30.01F
CORPUS CHRISTI CLOUDY    82  74  76 SE13      29.98F
KINGSVILLE NAS CLOUDY    81  77  88 SE13      29.97F
COTULLA        PTCLDY    89  67  47 SE13      29.93F
LAREDO         MOCLDY    88  73  61 E17       29.94R
BROWNSVILLE    CLOUDY    82  74  76 E13       29.99R
PORT ISABEL    MOCLDY    83  76  79 SE15      29.98R
HEBBRONVILLE   MOCLDY    84  72  67 SE13      29.98S
MCALLEN        CLOUDY    86  73  65 SE16      29.96R
WESLACO        HAZE      84  73  68 SE13G18   29.96R VSB<1/4
FALFURRIAS     PTCLDY    83  72  68 SE14      29.96F
EDINBURG       MOCLDY    85  73  67 E12G20    29.97R
$$



USA.gov is the U.S. government's official web portal to all federal, state and local government web resources and services.